Location: Bernadets
(43.3537°N, 0.3167°E)
Time: 18:52:01
(UTC+00:00)

Okean-O - Pass Details

Date: 31 May 2022
Orbit: 638 x 640 km, 98.1° (Epoch: 28 June)

Event Time Altitude Azimuth Distance (km) Brightness Sun altitude
Rises 20:39:46 0° 205° (SSW) 2,930 5.8 -10.6°
Reaches altitude 10° 20:42:37 10° 225° (SW) 2,027 5.2 -10.9°
Maximum altitude 20:45:35 18° 268° (W) 1,587 5.2 -11.3°
Drops below altitude 10° 20:48:34 10° 310° (NW) 2,037 6.8 -11.7°
Sets 20:51:27 0° 330° (NNW) 2,952 7.8 -12.1°
